Total_Precipitation_Accumulation
2.47 2.55 2.50 2.43 2.42 2.38 2.43 2.65 2.82 2.61 2.35 2.11 1.96 1.95 2.02 2.03 2.09 1.83 1.76 1.63 1.42 1.42 1.49 1.54 1.75 2.05 2.30 2.56 2.78 2.77 3.00 3.22 3.30 3.47 3.56 3.51 3.51 3.42
2.45 2.58 2.62 2.58 2.60 2.56 2.49 2.52 2.51 2.56 2.39 2.09 1.90 1.87 2.05 2.02 2.17 1.85 1.77 1.94 1.67 1.57 1.52 1.40 1.41 1.47 1.57 1.81 2.14 2.31 2.37 2.46 2.56 2.85 3.16 3.26 3.21 3.11
2.22 2.34 2.49 2.56 2.69 2.75 2.78 2.71 2.61 2.57 2.46 2.16 1.95 1.87 2.10 2.16 2.13 2.04 1.84 1.78 1.75 1.74 1.61 1.52 1.44 1.32 1.36 1.46 1.72 1.97 2.19 2.07 1.91 2.06 2.35 2.54 2.81 2.93
2.14 2.09 2.16 2.26 2.38 2.57 2.69 2.67 2.68 2.60 2.55 2.48 2.23 1.98 1.91 2.02 2.13 2.27 2.13 1.86 1.80 1.92 1.81 1.69 1.60 1.45 1.34 1.31 1.42 1.55 1.76 1.85 1.64 1.52 1.67 1.87 2.08 2.35
2.01 1.89 1.85 1.96 2.10 2.25 2.33 2.46 2.60 2.65 2.69 2.63 2.51 2.28 2.01 2.02 2.13 2.21 2.24 2.29 2.02 1.95 1.91 1.86 1.78 1.70 1.58 1.38 1.28 1.31 1.36 1.49 1.49 1.36 1.32 1.50 1.66 1.85
1.72 1.65 1.62 1.67 1.80 1.98 2.10 2.31 2.55 2.67 2.74 2.72 2.64 2.38 2.16 2.11 2.09 2.18 2.31 2.38 2.32 2.06 1.96 1.85 1.93 1.87 1.69 1.51 1.37 1.32 1.36 1.44 1.47 1.45 1.31 1.26 1.36 1.43
1.54 1.36 1.32 1.41 1.46 1.59 1.61 1.89 2.19 2.45 2.56 2.60 2.59 2.41 2.16 2.06 1.90 1.97 2.15 2.34 2.38 2.29 2.23 1.93 1.84 1.79 1.73 1.67 1.54 1.45 1.40 1.49 1.54 1.55 1.53 1.37 1.33 1.31
1.40 1.26 1.19 1.23 1.18 1.20 1.27 1.52 1.83 2.02 2.18 2.35 2.40 2.27 2.08 1.98 2.03 2.01 2.03 2.09 2.13 2.01 2.02 2.04 1.90 1.82 1.76 1.71 1.72 1.65 1.54 1.51 1.57 1.58 1.63 1.58 1.49 1.49
1.33 1.35 1.24 1.15 1.28 1.15 1.14 1.24 1.34 1.48 1.65 1.90 2.09 2.06 2.17 2.08 1.98 1.87 1.87 1.90 1.92 1.95 1.98 2.01 1.87 1.76 1.66 1.65 1.83 1.71 1.67 1.64 1.67 1.71 1.65 1.71 1.66 1.60
1.37 1.46 1.46 1.34 1.32 1.43 1.36 1.35 1.29 1.24 1.37 1.29 1.45 1.83 2.00 2.10 2.06 2.05 2.14 2.04 1.85 1.85 1.90 1.97 1.81 1.67 1.55 1.48 1.63 1.55 1.49 1.50 1.60 1.77 1.85 1.85 1.89 1.83
1.26 1.41 1.48 1.39 1.51 1.65 1.69 1.69 1.60 1.42 1.56 1.59 1.48 1.59 1.79 1.87 1.98 2.02 2.04 1.97 1.87 1.75 1.62 1.66 1.59 1.57 1.58 1.50 1.47 1.55 1.49 1.45 1.44 1.44 1.53 1.61 1.75 1.93
1.29 1.34 1.55 1.47 1.49 1.50 1.53 1.64 1.59 1.41 1.28 1.29 1.27 1.20 1.15 1.28 1.54 1.62 1.87 2.01 1.94 1.82 1.58 1.56 1.60 1.62 1.62 1.44 1.33 1.39 1.42 1.52 1.51 1.45 1.46 1.50 1.60 1.67
1.38 1.41 1.41 1.57 1.44 1.39 1.37 1.33 1.42 1.42 1.42 1.46 1.49 1.36 1.27 1.24 1.25 1.30 1.52 1.79 1.94 1.82 1.64 1.56 1.61 1.62 1.55 1.34 1.25 1.25 1.28 1.30 1.35 1.43 1.51 1.60 1.66 1.61
1.22 1.23 1.21 1.38 1.24 1.19 1.12 1.17 1.29 1.37 1.41 1.56 1.54 1.46 1.41 1.35 1.32 1.34 1.40 1.51 1.60 1.67 1.71 1.72 1.70 1.62 1.55 1.35 1.25 1.23 1.23 1.24 1.22 1.26 1.31 1.58 1.73 1.79
0.98 1.15 1.18 1.16 1.10 1.01 1.07 1.13 1.16 1.19 1.30 1.42 1.41 1.33 1.32 1.38 1.41 1.39 1.42 1.47 1.43 1.36 1.39 1.48 1.63 1.67 1.63 1.49 1.29 1.25 1.28 1.24 1.19 1.20 1.24 1.31 1.37 1.52
0.92 1.02 1.07 1.03 1.01 0.99 1.02 1.06 1.08 1.14 1.24 1.26 1.25 1.27 1.28 1.36 1.45 1.43 1.44 1.52 1.58 1.45 1.36 1.42 1.53 1.69 1.66 1.50 1.43 1.33 1.31 1.32 1.25 1.22 1.20 1.25 1.33 1.41
1.02 0.99 0.98 0.96 0.95 1.00 1.01 1.01 1.07 1.13 1.15 1.12 1.18 1.24 1.24 1.29 1.34 1.34 1.38 1.42 1.45 1.35 1.31 1.37 1.45 1.56 1.59 1.59 1.60 1.47 1.44 1.45 1.44 1.41 1.35 1.30 1.27 1.34
1.06 1.11 1.14 1.19 1.19 1.17 1.13 1.04 1.01 1.04 1.10 1.18 1.23 1.25 1.26 1.25 1.28 1.30 1.33 1.41 1.41 1.30 1.24 1.27 1.41 1.55 1.55 1.42 1.34 1.31 1.36 1.39 1.45 1.54 1.51 1.41 1.30 1.29
1.01 1.17 1.19 1.17 1.13 1.10 1.06 1.01 0.95 0.93 0.96 1.08 1.22 1.32 1.33 1.32 1.34 1.39 1.37 1.33 1.30 1.30 1.25 1.22 1.33 1.51 1.56 1.31 1.12 1.09 1.14 1.20 1.33 1.42 1.44 1.36 1.25 1.27
0.94 1.03 1.06 1.04 1.00 0.96 0.91 0.88 0.89 0.89 0.91 0.96 1.00 1.10 1.26 1.36 1.42 1.45 1.49 1.51 1.50 1.45 1.38 1.26 1.23 1.32 1.47 1.41 1.22 1.04 1.04 1.12 1.25 1.32 1.33 1.33 1.29 1.35
0.83 0.85 0.83 0.82 0.83 0.84 0.84 0.88 0.93 0.91 0.91 0.94 0.94 0.96 1.05 1.21 1.37 1.47 1.52 1.62 1.58 1.53 1.50 1.37 1.34 1.53 1.48 1.49 1.42 1.12 0.98 1.08 1.20 1.23 1.28 1.42 1.40 1.33
0.76 0.77 0.81 0.81 0.78 0.79 0.82 0.86 0.95 0.97 0.94 0.96 1.01 1.03 1.10 1.16 1.21 1.32 1.49 1.54 1.44 1.38 1.37 1.37 1.43 1.53 1.53 1.60 1.50 1.27 1.13 1.08 1.16 1.28 1.33 1.44 1.46 1.43
0.73 0.76 0.81 0.82 0.81 0.86 0.87 0.88 0.94 1.00 0.99 0.98 0.99 1.05 1.11 1.20 1.25 1.28 1.32 1.36 1.40 1.43 1.43 1.44 1.44 1.47 1.50 1.56 1.62 1.55 1.40 1.28 1.25 1.27 1.27 1.43 1.44 1.31